Location: Newark
(25.6108°S, 54.5803°W)
Time: 05:43:42
(UTC+00:00)

deb Explorer IX - Pass Details

Date: 28 October 2020
Orbit: 538 x 1104 km, 38.8° (Epoch: 27 November)

Event Time Altitude Azimuth Distance (km) Brightness Sun altitude
Rises 21:14:40 0° 269° (W) 3,348 ? 7.4°
Reaches altitude 10° 21:17:43 10° 257° (WSW) 2,308 ? 6.7°
Maximum altitude 21:22:11 26° 200° (SSW) 1,349 ? 5.8°
Drops below altitude 10° 21:26:09 10° 143° (SE) 2,026 ? 4.9°
Sets 21:28:40 0° 129° (SE) 2,860 ? 4.3°
